Regional Weather Roundup
Issued by NWS Sioux Falls, SD

Home | Current Version | Previous Version | Text Only | Print | Product List | Glossary On
Versions: 1 2 3 4 5 6 7 8 9 10 11 12 13 14 15 16 17 18 19 20 21 22 23 24 25 26 27 28 29 30 31 32 33 34 35 36 37 38 39 40 41 42 43 44 45 46 47 48 49 50
000
ASUS43 KFSD 042110
RWRFSD

WEATHER ROUNDUP FOR SE SOUTH DAKOTA/SW MINNESOTA/NW IOWA
NATIONAL WEATHER SERVICE SIOUX FALLS SD
400 PM CDT MON MAY 04 2015

NOTE: "FAIR" INDICATES FEW OR NO CLOUDS BELOW 12,000 FEET WITH NO
SIGNIFICANT WEATHER AND OR OBSTRUCTIONS TO VISIBILITY.


SDZ038>040-050-052>070-042200-
SOUTHEAST SOUTH DAKOTA

CITY           SKY/WX    TMP DP  RH WIND       PRES   REMARKS
BROOKINGS      PTSUNNY   70  27  19 NE9G18    30.16F
CHAMBERLAIN    PTSUNNY   70  24  17 NE12      30.14F
HURON          PTSUNNY   71  24  17 E10       30.14F
MADISON        FAIR      70  25  18 E17       30.15F
MITCHELL       PTSUNNY   74  25  16 E13       30.13F
SIOUX FALLS    CLOUDY    71  29  21 SE12      30.13F
WINNER         CLOUDY    69  21  16 NE14G22   30.14F
YANKTON        PTSUNNY   73  34  23 E15G21    30.10F
$$

MNZ071-072-080-081-089-090-097-098-042200-
SOUTHWEST MINNESOTA

CITY           SKY/WX    TMP DP  RH WIND       PRES   REMARKS
FAIRMONT       CLOUDY    70  25  18 E14G22    30.15F
JACKSON        CLOUDY    70  23  17 NE15      30.16F
LUVERNE        CLOUDY    72  23  16 NE10G21   30.15S
MARSHALL       MOSUNNY   72  27  18 NE12      30.15S
MONTEVIDEO     MOSUNNY   73  25  16 NE5       30.17F
REDWOOD FALLS  MOSUNNY   74  24  15 N7        30.15F
TRACY          PTSUNNY   73  28  18 E7        30.16S
WORTHINGTON    CLOUDY    68  28  22 E15       30.16S
$$

IAZ001>003-012>014-020>022-031-032-NEZ013-014-SDZ071-042200-
NORTHWEST IOWA

CITY           SKY/WX    TMP DP  RH WIND       PRES   REMARKS
CHEROKEE       CLOUDY    69  37  30 E13G20    30.13F
DENISON        DRIZZLE   61  57  88 E7        30.11R
ESTHERVILLE    CLOUDY    70  33  25 E14       30.14F
LE MARS        CLOUDY    72  36  26 E12G23    30.13F
ORANGE CITY    CLOUDY    70  34  26 SE9G18    30.13F
SHELDON        PTSUNNY   72  37  28 E15       30.13S
SIOUX CITY     CLOUDY    66  43  43 E15       30.13F
SPENCER        PTSUNNY   69  37  30 E14       30.15S
STORM LAKE     CLOUDY    66  41  39 E18       30.14F
$$

ABBREVIATIONS USED IN REMARKS
   TC - TEMPERATURE IN CELSIUS
  WCI - WIND CHILL INDEX
   HX - HEAT INDEX
  VSB - VISIBILITY




USA.gov is the U.S. government's official web portal to all federal, state and local government web resources and services.